FW6610 Weather Reports


time (UTC)temp
C
wind
direction
speed
KPH
gust
KPH
rain 1hr
cm
rain 24hr
cm
rain mn
cm
humidity
%
barometer
mb
20260506185029 15 160 3.2 8.0 0.08 0.23 0.23 93 1007.0
20260506184552 15 114 1.6 4.8 0.05 0.20 0.20 93 1007.1
20260506184029 15 162 1.6 6.4 0.08 0.20 0.20 93 1007.1
20260506183529 15 150 1.6 6.4 0.08 0.20 0.20 93 1006.9
20260506183036 15 115 1.6 4.8 0.08 0.18 0.18 92 1007.0
20260506182528 16 203 1.6 6.4 0.08 0.18 0.18 92 1007.3
20260506182030 16 217 1.6 9.7 0.10 0.18 0.18 92 1007.3
20260506181537 16 139 1.6 9.7 0.13 0.18 0.18 91 1007.3
20260506181030 16 147 1.6 9.7 0.15 0.18 0.18 91 1007.3
20260506180530 16 192 0.0 4.8 0.18 0.18 0.18 92 1007.1
20260506180046 16 144 1.6 4.8 0.15 0.15 0.15 91 1007.0
20260506175529 16 143 1.6 6.4 0.15 0.15 0.15 91 1006.8
20260506175029 16 203 3.2 6.4 0.15 0.15 0.15 91 1007.1
20260506174546 16 150 1.6 3.2 0.15 0.15 0.15 90 1007.0
20260506174029 17 0 1.6 3.2 0.13 0.13 0.13 91 1007.0
20260506173530 17 146 0.0 4.8 0.13 0.13 0.13 91 1007.3
20260506173052 17 144 1.6 4.8 0.10 0.10 0.10 89 1007.6
20260506172529 17 148 0.0 4.8 0.08 0.08 0.08 89 1007.5
20260506172030 17 162 0.0 6.4 0.08 0.08 0.08 87 1007.7
20260506171538 17 155 1.6 6.4 0.05 0.05 0.05 85 1007.9
20260506171029 18 150 1.6 6.4 0.03 0.03 0.03 83 1008.1
20260506170531 18 147 0.0 3.2 0.00 0.00 0.00 84 1007.8
20260506170040 18 141 0.0 4.8 0.00 0.00 0.00 83 1007.8
20260506165529 18 141 0.0 4.8 0.00 0.00 0.00 80 1007.8
20260506165029 19 197 1.6 4.8 0.00 0.00 0.00 78 1007.9
20260506164545 19 169 0.0 3.2 0.00 0.00 0.00 78 1007.8
20260506164028 19 166 1.6 6.4 0.00 0.00 0.00 78 1007.8
20260506163528 19 153 1.6 6.4 0.00 0.00 0.00 77 1007.7
20260506163056 20 154 1.6 4.8 0.00 0.00 0.00 77 1007.7
20260506162528 20 124 1.6 4.8 0.00 0.00 0.00 77 1007.8
20260506162028 20 140 0.0 3.2 0.00 0.00 0.00 78 1007.8
20260506161544 19 204 0.0 6.4 0.00 0.00 0.00 79 1008.1
20260506161030 19 146 1.6 6.4 0.00 0.00 0.00 78 1008.2
20260506160530 19 137 1.6 6.4 0.00 0.00 0.00 78 1008.2
20260506160040 18 168 1.6 4.8 0.00 0.00 0.00 78 1008.4
20260506155529 18 134 1.6 3.2 0.00 0.00 0.00 78 1008.5
20260506155028 18 139 0.0 4.8 0.00 0.00 0.00 81 1008.5
20260506154548 18 134 0.0 4.8 0.00 0.00 0.00 80 1008.6
20260506154030 18 146 1.6 4.8 0.00 0.00 0.00 80 1008.8
20260506153530 18 140 0.0 3.2 0.00 0.00 0.00 81 1008.8
20260506153038 18 134 0.0 3.2 0.00 0.00 0.00 81 1008.7
20260506152529 17 139 1.6 6.4 0.00 0.00 0.00 80 1008.9
20260506152029 17 132 3.2 6.4 0.00 0.00 0.00 80 1009.0
20260506151540 18 125 1.6 6.4 0.00 0.00 0.00 80 1009.3
20260506151028 18 147 1.6 4.8 0.00 0.00 0.00 80 1009.3
20260506150529 17 204 1.6 4.8 0.00 0.00 0.00 80 1009.1
20260506150045 17 139 1.6 4.8 0.00 0.00 0.00 81 1009.3
20260506145529 17 161 1.6 6.4 0.00 0.00 0.00 81 1009.1
20260506145029 17 207 1.6 9.7 0.00 0.00 0.00 82 1009.3
20260506144545 17 225 3.2 9.7 0.00 0.00 0.00 81 1009.2
20260506144028 17 126 3.2 8.0 0.00 0.00 0.00 80 1009.2
20260506143530 17 131 1.6 6.4 0.00 0.00 0.00 81 1009.3
20260506143042 17 202 1.6 8.0 0.00 0.00 0.00 82 1009.3
20260506142529 17 143 1.6 8.0 0.00 0.00 0.00 81 1009.4
20260506142028 17 228 3.2 8.0 0.00 0.00 0.00 81 1009.4
20260506141539 17 150 1.6 6.4 0.00 0.00 0.00 81 1009.2
20260506141029 17 148 3.2 6.4 0.00 0.00 0.00 81 1009.2
20260506140529 17 184 3.2 12.9 0.00 0.00 0.00 81 1009.2
20260506140037 17 153 1.6 12.9 0.00 0.00 0.00 81 1009.3
20260506135526 17 125 6.4 12.9 0.00 0.00 0.00 80 1009.3
20260506135029 17 223 3.2 9.7 0.00 0.00 0.00 81 1009.3
20260506134545 17 223 3.2 9.7 0.00 0.00 0.00 82 1009.0
20260506134029 16 165 4.8 9.7 0.00 0.00 0.00 83 1009.1
20260506133528 16 185 1.6 9.7 0.00 0.00 0.00 83 1009.2
20260506133047 16 184 3.2 9.7 0.00 0.00 0.00 82 1009.2
20260506132525 16 177 3.2 8.0 0.00 0.00 0.00 82 1009.2
20260506132031 16 133 3.2 9.7 0.00 0.00 0.00 83 1009.1
20260506131543 16 165 1.6 9.7 0.00 0.00 0.00 83 1009.1
20260506131029 16 209 1.6 6.4 0.00 0.00 0.00 83 1009.2
20260506130529 16 152 1.6 6.4 0.00 0.00 0.00 83 1009.4
20260506130043 16 143 0.0 6.4 0.00 0.00 0.00 83 1009.3
20260506125529 16 0 0.0 3.2 0.00 0.00 0.00 84 1009.2
20260506125029 16 136 1.6 3.2 0.00 0.00 0.00 84 1009.3
20260506124545 16 152 0.0 4.8 0.00 0.00 0.00 84 1009.4
20260506124029 16 0 0.0 8.0 0.00 0.00 0.00 85 1009.6
20260506123529 16 223 3.2 8.0 0.00 0.00 0.00 85 1009.8
20260506123036 16 148 1.6 4.8 0.00 0.00 0.00 85 1009.6
20260506122527 15 0 0.0 4.8 0.00 0.00 0.00 86 1009.7
20260506122028 15 0 1.6 3.2 0.00 0.00 0.00 86 1009.7
20260506121538 15 150 0.0 3.2 0.00 0.00 0.00 86 1009.7
20260506121026 15 0 0.0 3.2 0.00 0.00 0.00 87 1009.9
20260506120526 15 139 0.0 3.2 0.00 0.00 0.00 87 1009.6
20260506120044 15 142 0.0 4.8 0.00 0.00 0.00 87 1009.8
20260506115525 15 150 1.6 4.8 0.00 0.00 0.00 87 1009.8
20260506115026 15 133 0.0 4.8 0.00 0.00 0.00 87 1009.7
20260506114543 15 169 1.6 4.8 0.00 0.00 0.00 88 1009.7
20260506114028 14 156 0.0 6.4 0.00 0.00 0.00 88 1009.7
20260506113527 14 183 1.6 8.0 0.00 0.00 0.00 88 1009.5
20260506113042 14 177 0.0 8.0 0.00 0.00 0.00 88 1009.7
20260506112532 14 244 1.6 4.8 0.00 0.00 0.00 88 1009.7
20260506112030 14 144 1.6 4.8 0.00 0.00 0.00 88 1009.7
20260506111542 14 218 1.6 4.8 0.00 0.00 0.00 88 1009.6
20260506111029 14 197 0.0 4.8 0.00 0.00 0.00 88 1009.7
20260506110529 14 140 1.6 8.0 0.00 0.00 0.00 89 1009.7
20260506110041 13 157 1.6 8.0 0.00 0.00 0.00 89 1009.9
20260506105529 13 190 0.0 3.2 0.00 0.00 0.00 89 1010.0
20260506105025 13 191 1.6 6.4 0.00 0.00 0.00 89 1010.0
20260506104537 13 150 0.0 6.4 0.00 0.00 0.00 89 1010.1
20260506104028 13 191 3.2 6.4 0.00 0.00 0.00 89 1009.9
20260506103526 13 164 1.6 6.4 0.00 0.00 0.00 89 1009.9
20260506103041 13 148 1.6 6.4 0.00 0.00 0.00 89 1010.0
20260506102530 13 192 1.6 3.2 0.00 0.00 0.00 89 1009.7
20260506102028 13 157 1.6 4.8 0.00 0.00 0.00 90 1009.8
20260506101549 13 148 0.0 4.8 0.00 0.00 0.00 89 1009.5
20260506101025 13 155 1.6 6.4 0.00 0.00 0.00 89 1009.4
20260506100528 13 210 3.2 6.4 0.00 0.00 0.00 89 1009.6
20260506100041 13 205 1.6 4.8 0.00 0.00 0.00 89 1009.6
20260506095529 13 205 3.2 6.4 0.00 0.00 0.00 89 1009.6
20260506095028 13 203 1.6 6.4 0.00 0.00 0.00 89 1009.5
20260506094542 13 201 1.6 3.2 0.00 0.00 0.00 89 1009.4
20260506094029 13 157 1.6 4.8 0.00 0.00 0.00 89 1009.4
20260506093529 13 152 1.6 4.8 0.00 0.00 0.00 89 1009.6
20260506093039 13 184 1.6 3.2 0.00 0.00 0.00 88 1009.7
20260506092527 13 188 1.6 4.8 0.00 0.00 0.00 88 1009.5
20260506092026 13 204 1.6 4.8 0.00 0.00 0.00 88 1009.6
20260506091538 13 175 1.6 4.8 0.00 0.00 0.00 88 1009.5
20260506091029 13 207 1.6 3.2 0.00 0.00 0.00 87 1009.5
20260506090525 13 165 1.6 4.8 0.00 0.00 0.00 87 1009.5
20260506090046 13 201 1.6 4.8 0.00 0.00 0.00 87 1009.6
20260506085525 13 171 1.6 3.2 0.00 0.00 0.00 87 1009.6
20260506085025 13 162 1.6 9.7 0.00 0.00 0.00 86 1009.5
20260506084545 13 200 1.6 9.7 0.00 0.00 0.00 86 1009.5
20260506084028 13 164 1.6 4.8 0.00 0.00 0.00 86 1009.5
20260506083531 13 178 1.6 4.8 0.00 0.00 0.00 86 1009.5
20260506083043 13 199 1.6 4.8 0.00 0.00 0.00 86 1009.6
20260506082530 13 0 1.6 4.8 0.00 0.00 0.00 86 1009.5
20260506082026 13 176 1.6 4.8 0.00 0.00 0.00 86 1009.5
20260506081543 13 150 0.0 3.2 0.00 0.00 0.00 86 1009.5
20260506081029 13 160 0.0 3.2 0.00 0.00 0.00 86 1009.5
20260506080529 13 158 0.0 3.2 0.00 0.00 0.00 85 1009.5
20260506073045 14 167 0.0 4.8 0.00 0.00 0.00 84 1009.6
20260506072530 14 147 1.6 4.8 0.00 0.00 0.00 83 1009.5
20260506072029 14 195 1.6 3.2 0.00 0.00 0.00 83 1009.5
20260506071541 14 156 0.0 3.2 0.00 0.00 0.00 83 1009.5
20260506071028 14 150 1.6 3.2 0.00 0.00 0.00 82 1009.5
20260506070528 14 154 0.0 4.8 0.00 0.00 0.00 82 1009.6
20260506062026 15 0 0.0 0.0 0.00 0.00 0.00 80 1009.4
20260506061548 15 0 0.0 0.0 0.00 0.00 0.00 79 1009.3
20260506061031 15 0 0.0 0.0 0.00 0.00 0.00 79 1009.3
20260506060525 15 0 0.0 0.0 0.00 0.00 0.00 78 1009.3
20260506051026 16 155 0.0 3.2 0.00 0.00 0.00 75 1009.6
20260506050526 16 0 0.0 4.8 0.00 0.00 0.00 75 1009.5
20260506045025 16 131 0.0 3.2 0.00 0.00 0.00 75 1009.6
20260506044543 16 153 0.0 3.2 0.00 0.00 0.00 75 1009.6
20260506044029 16 0 0.0 3.2 0.00 0.00 0.00 75 1009.6
20260506043525 16 0 0.0 3.2 0.00 0.00 0.00 75 1009.7
20260506043041 16 0 0.0 3.2 0.00 0.00 0.00 74 1009.8
20260506042529 16 197 0.0 1.6 0.00 0.00 0.00 74 1009.7
20260506042029 16 149 0.0 6.4 0.00 0.00 0.00 74 1009.7
20260506041557 16 165 0.0 6.4 0.00 0.00 0.00 74 1009.7
20260506041025 16 0 1.6 6.4 0.00 0.00 0.00 74 1009.6
20260506040529 16 176 0.0 3.2 0.00 0.00 0.00 73 1009.7
20260506040041 16 172 0.0 3.2 0.00 0.00 0.00 73 1009.7
20260506035525 16 153 0.0 6.4 0.00 0.00 0.00 73 1009.7
20260506035025 16 169 0.0 6.4 0.00 0.00 0.00 73 1009.7
20260506034548 16 167 0.0 4.8 0.00 0.00 0.00 73 1009.8
20260506034030 16 154 0.0 1.6 0.00 0.00 0.00 72 1009.8
20260506033529 16 199 0.0 4.8 0.00 0.00 0.00 72 1009.8
20260506033038 16 0 0.0 9.7 0.00 0.00 0.00 72 1009.8
20260506032526 16 135 1.6 9.7 0.00 0.00 0.00 71 1009.8
20260506032027 16 160 0.0 4.8 0.00 0.00 0.00 71 1009.6
20260506031543 16 184 1.6 4.8 0.00 0.00 0.00 71 1009.7
20260506031025 17 146 0.0 3.2 0.00 0.00 0.00 70 1009.7
20260506030528 17 151 0.0 4.8 0.00 0.00 0.00 70 1009.7
20260506030043 17 171 1.6 4.8 0.00 0.00 0.00 70 1009.6
20260506025604 17 157 0.0 4.8 0.00 0.00 0.00 70 1009.7
20260506025028 17 162 1.6 4.8 0.00 0.00 0.00 69 1009.7
20260506024540 17 160 0.0 6.4 0.00 0.00 0.00 69 1009.7
20260506024025 17 153 0.0 6.4 0.00 0.00 0.00 69 1009.6
20260506023527 17 219 1.6 4.8 0.00 0.00 0.00 69 1009.6
20260506023043 17 156 1.6 3.2 0.00 0.00 0.00 69 1009.6
20260506022528 17 156 1.6 3.2 0.00 0.00 0.00 69 1009.6
20260506022028 17 147 0.0 3.2 0.00 0.00 0.00 69 1009.5
20260506021538 17 161 0.0 3.2 0.00 0.00 0.00 69 1009.5
20260506021028 18 157 1.6 3.2 0.00 0.00 0.00 68 1009.5
20260506020528 18 150 0.0 6.4 0.00 0.00 0.00 68 1009.4
20260506020051 18 151 0.0 6.4 0.00 0.00 0.00 68 1009.4
20260506015526 18 128 1.6 6.4 0.00 0.00 0.00 67 1009.4
20260506015029 18 213 0.0 4.8 0.00 0.00 0.00 67 1009.4
20260506014544 18 164 1.6 3.2 0.00 0.00 0.00 67 1009.5
20260506014025 18 157 0.0 3.2 0.00 0.00 0.00 68 1009.4
20260506013525 18 148 1.6 3.2 0.00 0.00 0.00 67 1009.4
20260506013052 18 0 0.0 3.2 0.00 0.00 0.00 67 1009.2
20260506012527 18 162 1.6 4.8 0.00 0.00 0.00 66 1009.3
20260506012026 18 195 0.0 4.8 0.00 0.00 0.00 66 1009.2
20260506011545 19 135 1.6 4.8 0.00 0.00 0.00 65 1009.1
20260506011025 19 106 1.6 6.4 0.00 0.00 0.00 65 1009.1
20260506010530 19 150 0.0 8.0 0.00 0.00 0.00 64 1009.2
20260506010040 19 120 0.0 8.0 0.00 0.00 0.00 64 1009.1
20260506005528 20 253 1.6 8.0 0.00 0.00 0.00 63 1008.9
20260506005026 20 0 1.6 8.0 0.00 0.00 0.00 63 1008.9
20260506004546 20 150 3.2 8.0 0.00 0.00 0.00 62 1008.9
20260506004026 20 140 1.6 8.0 0.00 0.00 0.00 62 1008.8
20260506003526 20 0 1.6 8.0 0.00 0.00 0.00 62 1008.9
20260506003045 20 175 1.6 11.3 0.00 0.00 0.00 62 1008.6
20260506002525 20 113 3.2 11.3 0.00 0.00 0.00 62 1008.5
20260506002026 20 200 1.6 8.0 0.00 0.00 0.00 61 1008.5
20260506001553 20 138 1.6 9.7 0.00 0.00 0.00 61 1008.3
20260506001026 20 221 3.2 9.7 0.00 0.00 0.00 60 1008.1
20260506000526 20 0 1.6 6.4 0.00 0.00 0.00 61 1008.0
20260506000044 21 135 1.6 6.4 0.00 0.00 0.00 61 1007.8
20260505235525 21 148 1.6 6.4 0.00 0.00 0.00 60 1007.7
20260505235025 21 118 1.6 8.0 0.00 0.00 0.00 60 1007.5
20260505234543 21 188 3.2 11.3 0.00 0.00 0.00 60 1007.5
20260505234025 21 146 3.2 11.3 0.00 0.00 0.00 59 1007.4
20260505233530 21 209 3.2 8.0 0.00 0.00 0.00 59 1007.3
20260505233038 21 148 3.2 8.0 0.00 0.00 0.00 58 1007.2
20260505232525 22 154 1.6 8.0 0.00 0.00 0.00 58 1007.1
20260505232026 22 150 3.2 12.9 0.00 0.00 0.00 57 1007.1
20260505231537 22 148 4.8 12.9 0.00 0.00 0.00 56 1006.9
20260505231026 22 137 4.8 11.3 0.00 0.00 0.00 56 1006.7
20260505230528 22 160 3.2 11.3 0.00 0.00 0.00 55 1006.6
20260505230052 22 146 1.6 11.3 0.00 0.00 0.00 56 1006.7
20260505225529 22 221 4.8 12.9 0.00 0.00 0.00 56 1006.7
20260505225030 23 143 3.2 12.9 0.00 0.00 0.00 54 1006.6
20260505224535 23 143 4.8 11.3 0.00 0.00 0.00 54 1006.6
20260505224025 23 147 4.8 12.9 0.00 0.00 0.00 53 1006.5
20260505223529 23 93 4.8 16.1 0.00 0.00 0.00 52 1006.5
20260505223045 23 221 4.8 16.1 0.00 0.00 0.00 52 1006.2
20260505222527 24 157 6.4 16.1 0.00 0.00 0.00 51 1006.4
20260505222025 24 137 4.8 17.7 0.00 0.00 0.00 50 1006.1
20260505221550 25 177 4.8 17.7 0.00 0.00 0.00 50 1006.2
20260505221029 25 156 4.8 17.7 0.00 0.00 0.00 50 1006.1
20260505220525 25 193 6.4 19.3 0.00 0.00 0.00 50 1006.1
20260505220052 25 199 6.4 19.3 0.00 0.00 0.00 50 1006.0
20260505215531 25 184 4.8 19.3 0.00 0.00 0.00 49 1006.0
20260505215028 25 136 4.8 14.5 0.00 0.00 0.00 49 1005.9
20260505214539 25 158 6.4 20.9 0.00 0.00 0.00 50 1005.9
20260505214026 25 153 8.0 20.9 0.00 0.00 0.00 49 1005.8
20260505213527 25 113 6.4 20.9 0.00 0.00 0.00 49 1005.8
20260505213042 26 184 6.4 20.9 0.00 0.00 0.00 48 1005.4
20260505212527 26 174 6.4 12.9 0.00 0.00 0.00 48 1005.4
20260505212030 26 139 6.4 19.3 0.00 0.00 0.00 48 1005.5
20260505211549 26 147 6.4 19.3 0.00 0.00 0.00 48 1005.5
20260505211026 26 217 8.0 22.5 0.00 0.00 0.00 49 1005.6
20260505210525 26 132 8.0 22.5 0.00 0.00 0.00 50 1005.6
20260505210043 26 124 6.4 17.7 0.00 0.00 0.00 50 1005.7
20260505205526 26 115 4.8 20.9 0.00 0.00 0.00 49 1005.4
20260505205031 26 148 6.4 20.9 0.00 0.00 0.00 48 1005.4
20260505204542 26 214 6.4 17.7 0.00 0.00 0.00 47 1005.3
20260505204032 26 99 4.8 17.7 0.00 0.00 0.00 48 1005.4
20260505203530 26 172 8.0 24.1 0.00 0.00 0.00 48 1005.5
20260505203037 26 165 6.4 24.1 0.00 0.00 0.00 47 1005.3
20260505202530 26 167 3.2 12.9 0.00 0.00 0.00 48 1005.4
20260505202029 27 147 6.4 14.5 0.00 0.00 0.00 46 1005.3
20260505201536 26 232 6.4 14.5 0.00 0.00 0.00 47 1005.6
20260505201033 27 162 6.4 14.5 0.00 0.00 0.00 47 1005.5
20260505200530 26 201 8.0 14.5 0.00 0.00 0.00 46 1005.6
20260505200043 27 205 6.4 14.5 0.00 0.00 0.00 45 1005.6
20260505195530 27 170 3.2 16.1 0.00 0.00 0.00 52 1005.5
20260505195030 27 179 6.4 17.7 0.00 0.00 0.00 48 1005.4
20260505194545 27 217 6.4 17.7 0.00 0.00 0.00 46 1005.4
20260505194030 26 152 6.4 16.1 0.00 0.00 0.00 47 1005.6
20260505193531 27 138 6.4 12.9 0.00 0.00 0.00 45 1005.5
20260505193050 27 217 4.8 12.9 0.00 0.00 0.00 44 1005.5
20260505192535 27 192 4.8 14.5 0.00 0.00 0.00 45 1005.6
20260505192032 27 176 6.4 17.7 0.00 0.00 0.00 44 1005.8
20260505191543 28 154 6.4 24.1 0.00 0.00 0.00 35 1005.7
20260505191029 28 165 8.0 24.1 0.00 0.00 0.00 37 1005.6
20260505190530 28 206 6.4 12.9 0.00 0.00 0.00 37 1005.7
20260505190043 28 178 3.2 12.9 0.00 0.00 0.00 37 1005.9
20260505185530 28 185 4.8 25.7 0.00 0.00 0.00 38 1005.8